Location: Newark
(53.3333°N, 83.7500°E)
Time: 13:40:48
(UTC+00:00)

SR - Pass Details

Date: 13 November 2019
Orbit: 573 x 882 km, 66.7° (Epoch: 15 December)

Event Time Altitude Azimuth Distance (km) Brightness Sun altitude
Rises 15:33:53 0° 303° (WNW) 3,400 ? -43.6°
Reaches altitude 10° 15:36:51 10° 318° (NW) 2,501 ? -44.0°
Enters shadow 15:38:04 15° 327° (NNW) 2,197 ? -44.2°
